Weather in Mustafino

Russia / Orenburg Oblast     52°50′09″N   54°46′45″E
temp.,
°C
wind,
m/s
gust,
m/s
humid.,
%
clouds,
%
prec.,
mm/h
press.,
hPa
HPBL,
m
19 september, sun
sun1923:00+6nw596612 0.1 1019928
02:00+5nw376497 0.0 1020439
05:00+3nnw49765 0.1 1021385
08:00+2nw410775 0.0 1022426
11:00+7nw675394 0.0 10231088
14:00+10nw67405 0.0 10231487
17:00+11nw67375 0.0 10231556
20:00+7nw335099 0.0 102429
20 september, mon
mon2023:00+5nw2256100 0.0 102419
02:00+4nnw226176 0.0 102511
05:00+3nnw116727 0.0 102610
08:00+3n226579 0.0 102621
11:00+9ne324613 0.0 1026802
14:00+11ne223627 0.0 10261202
17:00+12ne333363 0.0 10251274
20:00+8ene464598 0.0 102599
21 september, tue
tue2123:00+6ene4953100 0.0 1026226
02:00+5ne4754100 0.0 1026201
05:00+5ene3654100 0.0 1026199
08:00+7ese4749100 0.0 1026316
11:00+10se5637100 0.0 1025542
14:00+12sse5532100 0.0 1025723
17:00+12se3533100 0.0 1024331
20:00+11ese4836100 0.0 1024232
22 september, wed
wed2223:00+11ese5936100 0.0 1023285
02:00+10ese3939100 0.0 1023264
05:00+11se51038100 0.0 1023329
08:00+10se4938100 0.0 1023273
11:00+11se4737100 0.0 1024308
14:00+14sse5734100 0.0 1023651
17:00+14s4634100 0.0 1024663
20:00+11se2536100 0.0 1024144
23 september, thu
thu2323:00+11se2236100 0.0 102536
02:00+11ese3435100 0.0 102591
05:00+12se3535100 0.0 1025131
08:00+12ese4836100 0.0 1026199
11:00+14se583453 0.0 1026430
14:00+16sse4631100 0.0 1026844
17:00+17s563198 0.0 1026961
20:00+13s2240100 0.0 102611